This is the latest recevied weather packets stored in our database for station/object HS3UAA-1. If no packets are shown the sender has not sent any weather packets the latest 10 day(s).
| Time | Temp. | Humidity | Pressure | Rain* | Wind** | Luminosity | Snow |
|---|---|---|---|---|---|---|---|
| 1787536710 | 27.78° C | 49% | 997 hPa | - | - | 0 W/m² | - |
| 1787536388 | 27.78° C | 50% | 997 hPa | - | - | 0 W/m² | - |
| 1787536066 | 27.78° C | 51% | 997 hPa | - | - | 0 W/m² | - |
| 1787535744 | 27.78° C | 49% | 997 hPa | - | - | 0 W/m² | - |
| 1787535428 | 27.78° C | 52% | 997 hPa | - | - | 0 W/m² | - |
| 1787535106 | 27.78° C | 49% | 997 hPa | - | - | 0 W/m² | - |
| 1787534784 | 27.78° C | 53% | 997 hPa | - | - | 0 W/m² | - |
| 1787534462 | 27.78° C | 50% | 997 hPa | - | - | 0 W/m² | - |
| 1787534140 | 27.78° C | 52% | 997 hPa | - | - | 0 W/m² | - |
| 1787533818 | 27.78° C | 50% | 997 hPa | - | - | 0 W/m² | - |
| 1787533496 | 28.33° C | 52% | 997 hPa | - | - | 0 W/m² | - |
| 1787533174 | 27.78° C | 50% | 996 hPa | - | - | 0 W/m² | - |
| 1787532852 | 28.33° C | 53% | 996 hPa | - | - | 0 W/m² | - |
| 1787532530 | 28.33° C | 51% | 996 hPa | - | - | 0 W/m² | - |
| 1787532208 | 28.33° C | 54% | 996 hPa | - | - | 0 W/m² | - |
| 1787531886 | 28.33° C | 53% | 996 hPa | - | - | 0 W/m² | - |
| 1787531563 | 28.33° C | 51% | 996 hPa | - | - | 0 W/m² | - |
| 1787531241 | 28.33° C | 50% | 996 hPa | - | - | 0 W/m² | - |
| 1787530919 | 28.89° C | 52% | 996 hPa | - | - | 0 W/m² | - |
| 1787530597 | 28.89° C | 49% | 996 hPa | - | - | 0 W/m² | - |
| 1787530275 | 29.44° C | 50% | 996 hPa | - | - | 0 W/m² | - |
| 1787529953 | 31.11° C | 52% | 996 hPa | - | - | 0 W/m² | - |
| 1787529631 | 33.33° C | 50% | 996 hPa | - | - | 0 W/m² | - |
| 1787529309 | 32.22° C | 51% | 996 hPa | - | - | 0 W/m² | - |
| 1787528986 | 32.78° C | 51% | 996 hPa | - | - | 0 W/m² | - |
* Rain since midnight (hover to see other rain measurements)
** Current wind speed in m/s (hover to see current wind gust speed)